Location: Napa Junction
(38.1874°N, 122.2508°W)
Time: 22:51:36
(UTC+00:00)

CENTAUR R/B - Pass Details

Date: 05 December 2024
Orbit: 654 x 1528 km, 63.4° (Epoch: 19 January)

Event Time Altitude Azimuth Distance (km) Brightness Sun altitude
Rises 01:59:35 0° 314° (NW) 4,427 6.3 -13.6°
Reaches altitude 10° 02:03:02 10° 302° (WNW) 3,548 6.0 -14.3°
Maximum altitude 02:09:45 24° 253° (WSW) 2,705 5.7 -15.5°
Drops below altitude 10° 02:16:43 10° 204° (SSW) 3,685 6.0 -16.8°
Sets 02:20:26 0° 192° (SSW) 4,633 6.4 -17.5°
